Regional Weather Roundup
Issued by NWS

Home | Current Version | Previous Version | Text Only | Print | Product List | Glossary On
Versions: 1 2 3 4 5 6 7 8 9 10 11 12 13 14 15 16 17 18 19 20 21 22 23 24 25 26 27 28 29 30 31 32 33 34 35 36 37 38 39 40 41 42 43 44 45 46 47 48 49 50
000
ASUS45 KREV 070110
RWRNV
NEVADA REGIONAL WEATHER ROUNDUP
NATIONAL WEATHER SERVICE RENO NV
600 PM PDT FRI MAY 06 2016

NOTE: "FAIR" INDICATES FEW OR NO CLOUDS BELOW 12,000 FEET WITH NO
SIGNIFICANT WEATHER AND/OR OBSTRUCTIONS TO VISIBILITY.

NVZ001-003-004-070200-
WESTERN NEVADA

CITY           SKY/WX    TMP DP  RH WIND       PRES   REMARKS
RENO           CLOUDY    60  37  42 N17G23    29.83R
CARSON CITY    PTSUNNY   59  36  41 N8        29.83S
MINDEN         FAIR      57  37  47 NW8       29.83S
SLIDE MTN        N/A     32  32 100 N13         N/A
PYRAMID LAKE     N/A     55 N/A N/A W2          N/A
FALLON         CLOUDY    56  39  53 NE17G25   29.83R
LOVELOCK       LGT RAIN  53  45  74 N12       29.83F
$$

NVZ002-CAZ072-073-070200-
NORTHERN AND CENTRAL SIERRA

CITY           SKY/WX    TMP DP  RH WIND       PRES   REMARKS
TRUCKEE        CLOUDY    52  39  62 W8        29.88R
SQUAW VLY 8000   N/A     37  36  93 W3          N/A
BLUE CANYON    LGT RAIN  43  43 100 W5        29.93S VSB<1/4
MAMMOTH LAKES  FAIR      46  32  58 E9        29.88R
BRIDGEPORT     CLOUDY    49  32  52 NE10G20   29.84R
$$

NVZ030-031-036-070200-
NORTHERN NEVADA

CITY           SKY/WX    TMP DP  RH WIND       PRES   REMARKS
ELKO           LGT RAIN  51  45  79 SW10      29.84R
WINNEMUCCA     CLOUDY    53  41  63 SW16      29.85R
WENDOVER       CLOUDY    57  37  47 N22G31    29.78R
$$

NVZ035-037-070200-
CENTRAL NEVADA

CITY           SKY/WX    TMP DP  RH WIND       PRES   REMARKS
ELY            MOSUNNY   52  30  43 SW13      29.84S
EUREKA           N/A     52  33  48 S7        29.86R
$$

NVZ013-014-070200-
SOUTH CENTRAL NEVADA

CITY           SKY/WX    TMP DP  RH WIND       PRES   REMARKS
TONOPAH        MOSUNNY   53  36  52 N5        29.85S
$$

NVZ017-020-022-070200-
SOUTHERN NEVADA

CITY           SKY/WX    TMP DP  RH WIND       PRES   REMARKS
LAS VEGAS      CLOUDY    63  40  42 S6        29.76S
N. LAS VEGAS   CLOUDY    63  39  41 SW9       29.80S
NELLIS AFB     PTSUNNY   64  39  38 SE7       29.79S
HENDERSON      CLOUDY    59  44  57 S7        29.81F
MERCURY        PTSUNNY   66  37  34 E14G26    29.76S
$$



USA.gov is the U.S. government's official web portal to all federal, state and local government web resources and services.